GW2166 Weather Reports


Display with metric or nautical units.
time (UTC)temp
F
wind
direction
speed
MPH
gust
MPH
rain 1hr
in
rain 24hr
in
rain mn
in
humidity
%
barometer
mb
20260508211302 66 0 8.0 13.0 0.00 0.00 0.00 79 1007.8
20260508210802 65 1 8.0 13.0 0.00 0.00 0.00 80 1007.8
20260508210302 65 344 8.0 14.0 0.00 0.00 0.00 78 1007.9
20260508205802 66 353 8.0 14.0 0.00 0.00 0.00 77 1008.0
20260508205305 67 314 9.0 13.0 0.00 0.00 0.00 75 1008.1
20260508204802 68 3 9.0 13.0 0.00 0.00 0.00 74 1008.2
20260508204302 69 305 4.0 9.0 0.00 0.00 0.00 73 1008.1
20260508203802 69 227 3.0 5.0 0.00 0.00 0.00 72 1008.1
20260508203301 69 316 1.0 7.0 0.00 0.00 0.00 74 1008.1
20260508202802 68 305 4.0 9.0 0.00 0.00 0.00 73 1008.0
20260508202306 68 337 3.0 11.0 0.00 0.00 0.00 72 1008.0
20260508201802 68 312 5.0 11.0 0.00 0.00 0.00 73 1008.0
20260508201302 68 345 4.0 6.0 0.00 0.00 0.00 72 1008.0
20260508200802 69 324 4.0 6.0 0.00 0.00 0.00 71 1007.9
20260508195802 68 7 4.0 6.0 0.00 0.00 0.00 72 1007.6
20260508195305 68 348 2.0 5.0 0.00 0.00 0.00 74 1007.8
20260508194802 68 0 3.0 5.0 0.00 0.00 0.00 74 1008.0
20260508194303 68 258 2.0 5.0 0.00 0.00 0.00 74 1008.2
20260508193303 68 290 3.0 5.0 0.00 0.00 0.00 74 1008.4
20260508192802 68 234 3.0 7.0 0.00 0.00 0.00 73 1008.5
20260508192305 68 235 2.0 7.0 0.00 0.00 0.00 74 1008.0
20260508191802 68 176 3.0 9.0 0.00 0.00 0.00 72 1007.6
20260508191302 68 161 3.0 9.0 0.00 0.00 0.00 73 1007.3
20260508190802 68 148 5.0 9.0 0.00 0.00 0.00 73 1007.4
20260508190302 68 114 2.0 5.0 0.00 0.00 0.00 70 1007.3
20260508185802 69 94 3.0 5.0 0.00 0.00 0.00 72 1007.3
20260508185306 69 183 2.0 6.0 0.00 0.00 0.00 72 1007.7
20260508184802 69 199 4.0 6.0 0.00 0.00 0.00 71 1008.0
20260508184302 69 168 2.0 6.0 0.00 0.00 0.00 70 1008.1
20260508183803 69 207 4.0 6.0 0.00 0.00 0.00 69 1008.5
20260508183302 69 186 2.0 6.0 0.00 0.00 0.00 71 1008.6
20260508182803 69 175 2.0 6.0 0.00 0.00 0.00 69 1008.7
20260508182306 69 251 4.0 9.0 0.00 0.00 0.00 70 1008.5
20260508181803 69 235 2.0 9.0 0.00 0.00 0.00 69 1008.6
20260508180802 68 186 2.0 5.0 0.00 0.00 0.00 71 1008.8
20260508174802 69 189 5.0 7.0 0.00 0.00 0.00 68 1008.7
20260508174302 69 212 3.0 12.0 0.00 0.00 0.00 68 1008.7
20260508173803 69 192 5.0 12.0 0.00 0.00 0.00 69 1008.7
20260508173302 69 155 6.0 10.0 0.00 0.00 0.00 69 1008.9
20260508172802 68 221 4.0 9.0 0.00 0.00 0.00 69 1008.9
20260508172306 68 197 4.0 7.0 0.00 0.00 0.00 69 1008.9
20260508171802 68 180 3.0 7.0 0.00 0.00 0.00 69 1008.9
20260508171303 68 168 3.0 9.0 0.00 0.00 0.00 70 1009.1
20260508170325 68 195 4.0 11.0 0.00 0.00 0.00 70 1008.9
20260508165306 66 148 4.0 9.0 0.00 0.00 0.00 72 1008.8
20260508164801 66 120 4.0 9.0 0.00 0.00 0.00 74 1008.9
20260508164302 65 178 2.0 5.0 0.00 0.00 0.00 74 1009.0
20260508163302 64 154 2.0 6.0 0.00 0.00 0.00 74 1009.1
20260508162300 63 162 2.0 4.0 0.00 0.00 0.00 76 1009.1
20260508161800 63 138 2.0 10.0 0.00 0.00 0.00 74 1009.1
20260508160800 63 202 2.0 5.0 0.00 0.00 0.00 75 1009.2
20260508160258 63 169 2.0 4.0 0.00 0.00 0.00 75 1009.4
20260508155255 63 223 3.0 5.0 0.00 0.00 0.00 74 1009.6
20260508154757 62 238 1.0 4.0 0.00 0.00 0.00 75 1009.6
20260508154253 62 190 1.0 7.0 0.00 0.00 0.00 75 1009.6
20260508153755 62 230 1.0 7.0 0.00 0.00 0.00 73 1009.5
20260508151752 62 189 3.0 9.0 0.00 0.00 0.00 76 1009.3
20260508151252 61 188 4.0 9.0 0.00 0.00 0.00 76 1009.2
20260508150754 61 178 2.0 9.0 0.00 0.00 0.00 76 1009.3
20260508145734 60 227 4.0 10.0 0.00 0.00 0.00 77 1009.2
20260508145235 60 171 2.0 10.0 0.00 0.00 0.00 77 1009.3
20260508144735 60 210 4.0 10.0 0.00 0.00 0.00 77 1009.3
20260508143735 59 227 2.0 9.0 0.00 0.00 0.00 76 1009.4
20260508143230 59 190 4.0 7.0 0.00 0.00 0.00 77 1009.5
20260508142231 59 175 5.0 11.0 0.00 0.00 0.00 75 1009.5
20260508141731 59 202 4.0 11.0 0.00 0.00 0.00 75 1009.5
20260508141232 59 195 5.0 11.0 0.00 0.00 0.00 75 1009.5
20260508140730 58 154 3.0 9.0 0.00 0.00 0.00 76 1009.6
20260508135727 58 209 4.0 7.0 0.00 0.00 0.00 75 1009.7
20260508135228 58 158 2.0 7.0 0.00 0.00 0.00 77 1009.6
20260508134725 58 159 5.0 7.0 0.00 0.00 0.00 77 1009.6
20260508134226 58 189 3.0 9.0 0.00 0.00 0.00 76 1009.6
20260508133727 57 155 3.0 9.0 0.00 0.00 0.00 76 1009.6
20260508132725 57 199 4.0 9.0 0.00 0.00 0.00 76 1009.5
20260508132223 57 193 3.0 9.0 0.00 0.00 0.00 77 1009.3
20260508131720 57 144 4.0 10.0 0.00 0.00 0.00 76 1009.2
20260508131221 56 224 4.0 10.0 0.00 0.00 0.00 77 1009.3
20260508130721 56 223 5.0 12.0 0.00 0.00 0.00 77 1009.2
20260508130219 56 179 6.0 12.0 0.00 0.00 0.00 77 1009.3
20260508125719 56 183 5.0 10.0 0.00 0.00 0.00 78 1009.2
20260508125220 56 179 4.0 10.0 0.00 0.00 0.00 77 1009.2
20260508124717 56 140 5.0 10.0 0.00 0.00 0.00 77 1009.2
20260508124217 56 197 5.0 10.0 0.00 0.00 0.00 77 1009.3
20260508123717 55 186 5.0 10.0 0.00 0.00 0.00 77 1009.3
20260508123214 55 203 5.0 12.0 0.00 0.00 0.00 77 1009.4
20260508122714 55 197 4.0 12.0 0.00 0.00 0.00 78 1009.3
20260508122215 55 190 4.0 10.0 0.00 0.00 0.00 78 1009.1
20260508121716 55 189 4.0 10.0 0.00 0.00 0.00 78 1009.2
20260508121217 55 159 4.0 9.0 0.00 0.00 0.00 78 1009.1
20260508120713 55 178 5.0 10.0 0.00 0.00 0.00 78 1009.0
20260508120211 55 180 4.0 10.0 0.00 0.00 0.00 78 1009.1
20260508115710 55 217 4.0 10.0 0.00 0.00 0.00 78 1009.1
20260508115211 55 190 4.0 10.0 0.00 0.00 0.00 77 1009.1
20260508114208 55 188 4.0 9.0 0.00 0.00 0.00 78 1009.2
20260508113207 55 203 4.0 11.0 0.00 0.00 0.00 77 1009.0
20260508112706 55 199 4.0 11.0 0.00 0.00 0.00 78 1008.9
20260508112207 55 169 5.0 10.0 0.00 0.00 0.00 78 1009.0
20260508111705 55 175 4.0 10.0 0.00 0.00 0.00 78 1009.0
20260508110705 55 192 4.0 9.0 0.00 0.00 0.00 77 1009.0
20260508110206 55 220 4.0 9.0 0.00 0.00 0.00 77 1009.2
20260508105705 55 238 2.0 6.0 0.00 0.00 0.00 76 1009.5
20260508105203 55 217 3.0 6.0 0.00 0.00 0.00 77 1009.2
20260508104203 55 219 3.0 7.0 0.00 0.00 0.00 77 1008.9
20260508103704 55 185 3.0 7.0 0.00 0.00 0.00 77 1008.9
20260508103203 55 226 3.0 7.0 0.00 0.00 0.00 77 1008.9
20260508102701 55 197 4.0 11.0 0.00 0.00 0.00 76 1009.0
20260508102202 55 173 2.0 11.0 0.00 0.00 0.00 76 1009.1
20260508101701 55 223 4.0 9.0 0.00 0.00 0.00 77 1008.8
20260508101202 55 190 3.0 9.0 0.00 0.00 0.00 76 1008.9
20260508100703 55 219 3.0 9.0 0.00 0.00 0.00 77 1008.9
20260508100203 55 213 4.0 11.0 0.00 0.00 0.00 77 1008.9
20260508095202 55 186 4.0 9.0 0.00 0.00 0.00 77 1008.9
20260508094702 55 197 3.0 10.0 0.00 0.00 0.00 78 1008.9
20260508094202 54 195 4.0 10.0 0.00 0.00 0.00 78 1008.8
20260508093202 54 192 3.0 6.0 0.00 0.00 0.00 78 1008.8
20260508092702 54 165 3.0 9.0 0.00 0.00 0.00 79 1008.7
20260508092203 54 230 3.0 9.0 0.00 0.00 0.00 80 1008.7
20260508091702 54 199 2.0 5.0 0.00 0.00 0.00 79 1008.7
20260508091201 54 145 2.0 4.0 0.00 0.00 0.00 80 1008.8
20260508090702 54 186 2.0 4.0 0.00 0.00 0.00 80 1008.8
20260508090202 54 140 1.0 4.0 0.00 0.00 0.00 80 1008.7
20260508085701 54 178 2.0 5.0 0.00 0.00 0.00 79 1008.8
20260508085202 54 172 2.0 5.0 0.00 0.00 0.00 80 1008.8
20260508084702 54 166 1.0 7.0 0.00 0.00 0.00 80 1008.9
20260508084203 54 185 2.0 7.0 0.00 0.00 0.00 80 1008.8
20260508083703 54 175 3.0 6.0 0.00 0.00 0.00 80 1008.8
20260508083202 54 188 2.0 5.0 0.00 0.00 0.00 81 1008.9
20260508082203 54 182 2.0 4.0 0.00 0.00 0.00 80 1009.0
20260508081702 54 182 1.0 4.0 0.00 0.00 0.00 81 1009.0
20260508081202 54 166 1.0 5.0 0.00 0.00 0.00 80 1009.0
20260508080702 54 185 1.0 5.0 0.00 0.00 0.00 80 1009.1
20260508075702 54 180 2.0 6.0 0.00 0.00 0.00 81 1009.2
20260508075203 53 175 2.0 6.0 0.00 0.00 0.00 81 1009.3
20260508074702 53 180 3.0 5.0 0.00 0.00 0.00 82 1009.4
20260508074202 53 199 2.0 4.0 0.00 0.00 0.00 82 1009.4
20260508073702 53 178 2.0 5.0 0.00 0.00 0.00 82 1009.5
20260508073202 53 171 3.0 5.0 0.00 0.00 0.00 83 1009.6
20260508072202 53 166 3.0 5.0 0.00 0.00 0.00 82 1009.7
20260508071702 53 172 2.0 6.0 0.00 0.00 0.00 83 1009.9
20260508070702 53 175 2.0 7.0 0.00 0.00 0.00 83 1010.0
20260508070202 53 164 2.0 7.0 0.00 0.00 0.00 83 1010.0
20260508065201 53 172 0.0 4.0 0.00 0.00 0.00 82 1010.2
20260508064702 53 178 1.0 3.0 0.00 0.00 0.00 83 1010.2
20260508064203 53 178 0.0 3.0 0.00 0.00 0.00 83 1010.2
20260508063702 53 219 1.0 2.0 0.00 0.00 0.00 82 1010.3
20260508063202 53 219 0.0 2.0 0.00 0.00 0.00 83 1010.4
20260508062702 53 219 0.0 2.0 0.00 0.00 0.00 83 1010.5
20260508062203 53 219 0.0 0.0 0.00 0.00 0.00 83 1010.8
20260508061702 53 219 0.0 1.0 0.00 0.00 0.00 82 1010.8
20260508061202 53 219 0.0 2.0 0.00 0.00 0.00 83 1010.6
20260508060702 52 219 0.0 2.0 0.00 0.00 0.00 82 1010.6
20260508060202 52 219 1.0 2.0 0.00 0.00 0.00 82 1010.8
20260508055703 52 200 1.0 5.0 0.00 0.00 0.00 83 1010.6
20260508055203 52 185 0.0 5.0 0.00 0.00 0.00 82 1010.6
20260508054201 52 178 2.0 3.0 0.00 0.00 0.00 81 1010.4
20260508053703 52 176 1.0 4.0 0.00 0.00 0.00 81 1010.4
20260508052702 53 197 2.0 5.0 0.00 0.00 0.00 80 1010.4
20260508052202 53 158 1.0 5.0 0.00 0.00 0.00 79 1010.4
20260508051202 53 169 2.0 4.0 0.00 0.00 0.00 78 1010.5
20260508050202 54 179 3.0 5.0 0.00 0.00 0.00 78 1010.6
20260508045702 54 179 3.0 5.0 0.00 0.00 0.00 77 1010.5
20260508045202 54 165 2.0 4.0 0.00 0.00 0.00 77 1010.5
20260508044702 55 162 2.0 5.0 0.00 0.00 0.00 77 1010.4
20260508044202 55 171 3.0 5.0 0.00 0.00 0.00 75 1010.6
20260508043702 55 183 3.0 5.0 0.00 0.00 0.00 75 1010.6
20260508042702 56 193 3.0 5.0 0.00 0.00 0.00 75 1010.8
20260508041702 56 162 4.0 9.0 0.00 0.00 0.00 74 1010.8
20260508041203 56 171 3.0 9.0 0.00 0.00 0.00 73 1010.8
20260508040203 57 173 3.0 9.0 0.00 0.00 0.00 72 1010.6
20260508035703 57 190 4.0 10.0 0.00 0.00 0.00 72 1010.6
20260508035202 57 202 4.0 10.0 0.00 0.00 0.00 72 1010.6
20260508034203 57 171 4.0 9.0 0.00 0.00 0.00 71 1010.8
20260508033702 58 172 4.0 11.0 0.00 0.00 0.00 71 1010.8
20260508033201 58 189 4.0 11.0 0.00 0.00 0.00 70 1010.6
20260508032702 58 168 4.0 7.0 0.00 0.00 0.00 70 1010.6
20260508032202 58 188 3.0 6.0 0.00 0.00 0.00 69 1010.6
20260508031702 59 180 3.0 6.0 0.00 0.00 0.00 70 1010.5
20260508031202 59 171 3.0 6.0 0.00 0.00 0.00 69 1010.5
20260508030702 59 161 3.0 6.0 0.00 0.00 0.00 69 1010.6
20260508025702 59 176 4.0 10.0 0.00 0.00 0.00 69 1010.4
20260508025203 60 189 4.0 9.0 0.00 0.00 0.00 68 1010.4
20260508024702 60 175 4.0 7.0 0.00 0.00 0.00 68 1010.4
20260508024203 60 192 4.0 7.0 0.00 0.00 0.00 68 1010.2
20260508023702 60 178 4.0 7.0 0.00 0.00 0.00 67 1010.2
20260508022703 60 182 4.0 9.0 0.00 0.00 0.00 67 1010.0
20260508021702 61 185 4.0 7.0 0.00 0.00 0.00 66 1009.9
20260508020217 62 179 3.0 6.0 0.00 0.00 0.00 65 1009.9
20260508015702 62 197 3.0 6.0 0.00 0.00 0.00 64 1009.8
20260508014703 62 192 4.0 9.0 0.00 0.00 0.00 64 1009.8
20260508014202 62 175 3.0 9.0 0.00 0.00 0.00 64 1009.7
20260508013702 63 193 3.0 9.0 0.00 0.00 0.00 63 1009.6
20260508013202 63 188 4.0 9.0 0.00 0.00 0.00 62 1009.6
20260508012702 63 195 4.0 7.0 0.00 0.00 0.00 61 1009.6
20260508012202 64 230 3.0 7.0 0.00 0.00 0.00 61 1009.6
20260508011702 64 189 4.0 6.0 0.00 0.00 0.00 61 1009.5
20260508011202 64 183 4.0 9.0 0.00 0.00 0.00 60 1009.6
20260508010702 65 158 4.0 9.0 0.00 0.00 0.00 59 1009.6
20260508010202 65 175 4.0 7.0 0.00 0.00 0.00 58 1009.5
20260508005702 66 166 4.0 7.0 0.00 0.00 0.00 59 1009.5
20260508005202 66 152 3.0 5.0 0.00 0.00 0.00 59 1009.5
20260508004701 67 186 3.0 5.0 0.00 0.00 0.00 57 1009.5
20260508004202 67 171 2.0 5.0 0.00 0.00 0.00 56 1009.5
20260508003702 68 179 2.0 7.0 0.00 0.00 0.00 56 1009.5
20260508003203 68 142 2.0 7.0 0.00 0.00 0.00 53 1009.6
20260508002702 69 175 3.0 5.0 0.00 0.00 0.00 52 1009.6
20260508002203 69 182 3.0 7.0 0.00 0.00 0.00 50 1009.5
20260508001703 70 182 4.0 7.0 0.00 0.00 0.00 49 1009.6
20260508001201 70 189 5.0 10.0 0.00 0.00 0.00 48 1009.6
20260508000702 71 169 4.0 10.0 0.00 0.00 0.00 47 1009.7
20260508000204 71 185 6.0 13.0 0.00 0.00 0.00 46 1009.7
20260507235702 72 204 6.0 13.0 0.00 0.00 0.00 45 1009.7
20260507235203 72 165 5.0 10.0 0.00 0.00 0.00 45 1009.5
20260507234703 72 192 4.0 14.0 0.00 0.00 0.00 46 1009.6
20260507234203 72 217 4.0 14.0 0.00 0.00 0.00 45 1009.7
20260507233702 72 178 7.0 12.0 0.00 0.00 0.00 44 1009.8
20260507233202 72 221 5.0 12.0 0.00 0.00 0.00 46 1009.8
20260507232702 72 207 6.0 12.0 0.00 0.00 0.00 45 1009.9
20260507232201 72 196 5.0 11.0 0.00 0.00 0.00 46 1009.9
20260507231702 72 228 5.0 15.0 0.00 0.00 0.00 44 1010.0
20260507231202 72 216 8.0 15.0 0.00 0.00 0.00 45 1010.0
20260507230202 72 200 4.0 14.0 0.00 0.00 0.00 46 1010.0
20260507225702 72 272 6.0 14.0 0.00 0.00 0.00 46 1010.1
20260507225203 72 261 5.0 15.0 0.00 0.00 0.00 47 1010.0
20260507224702 72 217 7.0 16.0 0.00 0.00 0.00 44 1010.2
20260507224203 72 206 8.0 16.0 0.00 0.00 0.00 45 1010.2
20260507223702 72 243 4.0 17.0 0.00 0.00 0.00 46 1010.3
20260507223201 72 144 9.0 17.0 0.00 0.00 0.00 47 1010.2
20260507222702 72 207 4.0 15.0 0.00 0.00 0.00 47 1010.4
20260507222203 72 216 8.0 16.0 0.00 0.00 0.00 46 1010.5
20260507221702 72 233 8.0 16.0 0.00 0.00 0.00 44 1010.4
20260507221202 72 221 8.0 17.0 0.00 0.00 0.00 42 1010.3
20260507220703 72 241 6.0 17.0 0.00 0.00 0.00 45 1010.4
20260507220202 73 200 8.0 17.0 0.00 0.00 0.00 46 1010.4
20260507215702 73 238 7.0 17.0 0.00 0.00 0.00 46 1010.4
20260507214701 72 169 8.0 16.0 0.00 0.00 0.00 45 1010.5
20260507214203 72 204 8.0 16.0 0.00 0.00 0.00 49 1010.6
20260507213702 72 178 9.0 17.0 0.00 0.00 0.00 46 1010.8
20260507213202 72 204 8.0 17.0 0.00 0.00 0.00 45 1010.8
20260507212702 72 203 8.0 17.0 0.00 0.00 0.00 46 1010.9
20260507212202 72 161 9.0 17.0 0.00 0.00 0.00 47 1010.9
20260507211702 72 247 8.0 16.0 0.00 0.00 0.00 47 1011.1